This demonstration page uses our WeatherBlox Daily Observations layout. Learn more.

Left ArrowRight Arrow

Hourly Observations for February 26, 2016

Temp ( °F °C ) Dew Point ( °F °C ) Humidity (%) Winds ( mph kmh ) Pressure ( in mb ) Visibility ( mi km ) Precip ( " mm )
12:15 am 00:15 Clear 25 -4 18 -8 74 74 SSW 9 15 30.42 1030 10 16 0.00 0.00
12:35 am 00:35 Clear 25 -4 18 -8 74 74 SSW 8 13 30.42 1030 10 16 0.00 0.00
12:55 am 00:55 Clear 25 -4 18 -8 74 74 SSW 9 15 30.39 1029 10 16 0.00 0.00
1:15 am 01:15 Clear 25 -4 18 -8 74 74 NNE 7 11 30.39 1029 10 16 0.00 0.00
1:35 am 01:35 Clear 27 -3 18 -8 69 69 SW 12 19 30.36 1028 10 16 0.00 0.00
1:55 am 01:55 Clear 27 -3 18 -8 69 69 SSW 9 15 30.36 1028 10 16 0.00 0.00
2:15 am 02:15 Clear 27 -3 18 -8 69 69 SSW 9 15 30.36 1028 10 16 0.00 0.00
2:35 am 02:35 Mostly Clear 27 -3 18 -8 69 69 SSW 8 13 30.36 1028 10 16 0.00 0.00
2:55 am 02:55 Mostly Clear 27 -3 18 -8 69 69 SSW 8 13 30.33 1027 10 16 0.00 0.00
3:15 am 03:15 Clear 25 -4 18 -8 74 74 SSW 6 9 30.36 1028 10 16 0.00 0.00
3:35 am 03:35 Clear 27 -3 19 -7 74 74 SW 6 9 30.33 1027 10 16 0.00 0.00
3:55 am 03:55 Clear 27 -3 19 -7 74 74 SW 7 11 30.33 1027 10 16 0.00 0.00
4:15 am 04:15 Mostly Cloudy 28 -2 19 -7 69 69 SW 7 11 30.30 1026 10 16 0.00 0.00
4:35 am 04:35 Cloudy 30 -1 19 -7 64 64 SSW 8 13 30.30 1026 10 16 0.00 0.00
4:55 am 04:55 Cloudy 28 -2 19 -7 69 69 SSW 8 13 30.30 1026 10 16 0.00 0.00
5:15 am 05:15 Cloudy 28 -2 19 -7 69 69 SSW 7 11 30.30 1026 10 16 0.00 0.00
5:35 am 05:35 Cloudy 28 -2 19 -7 69 69 SSW 12 19 30.27 1025 10 16 0.00 0.00
5:55 am 05:55 Cloudy 30 -1 19 -7 64 64 SSW 15 24 30.27 1025 10 16 0.00 0.00
6:15 am 06:15 Cloudy 30 -1 19 -7 64 64 SW 13 20 30.27 1025 10 16 0.00 0.00
6:35 am 06:35 Cloudy 30 -1 18 -8 59 59 SW 14 22 30.27 1025 10 16 0.00 0.00
6:55 am 06:55 Cloudy 30 -1 18 -8 59 59 SW 10 17 30.27 1025 10 16 0.00 0.00
7:15 am 07:15 Cloudy 30 -1 18 -8 59 59 WSW 12 19 30.27 1025 10 16 0.00 0.00
7:35 am 07:35 Partly Cloudy 30 -1 18 -8 59 59 WSW 10 17 30.27 1025 10 16 0.00 0.00
7:55 am 07:55 Sunny 30 -1 18 -8 59 59 WSW 12 19 30.27 1025 10 16 0.00 0.00
8:15 am 08:15 Sunny 30 -1 18 -8 59 59 WSW 13 20 30.27 1025 10 16 0.00 0.00
8:35 am 08:35 Sunny 32 0 18 -8 55 55 WSW 10 17 30.24 1024 9 14 0.00 0.00
8:55 am 08:55 Sunny 34 1 18 -8 51 51 W 9 15 30.24 1024 10 16 0.00 0.00
9:15 am 09:15 Sunny 37 3 19 -7 48 48 WNW 9 15 30.21 1023 10 16 0.00 0.00
9:35 am 09:35 Sunny 41 5 19 -7 42 42 NW 12 19 30.21 1023 10 16 0.00 0.00
9:55 am 09:55 Sunny 45 7 21 -6 39 39 NW 15 24 30.18 1022 10 16 0.00 0.00
10:15 am 10:15 Sunny 46 8 19 -7 34 34 NW 16 26 30.18 1022 10 16 0.00 0.00
10:35 am 10:35 Sunny 46 8 19 -7 34 34 NNW 16 26 30.18 1022 10 16 0.00 0.00
10:55 am 10:55 Sunny 48 9 19 -7 32 32 NW 18 30 30.18 1022 10 16 0.00 0.00
11:15 am 11:15 Sunny 50 10 19 -7 30 30 NNW 17 28 30.15 1021 10 16 0.00 0.00
11:35 am 11:35 Sunny 52 11 19 -7 28 28 NNW 20 31 30.15 1021 10 16 0.00 0.00
11:55 am 11:55 Sunny 54 12 19 -7 26 26 NW 21 33 30.15 1021 10 16 0.00 0.00
12:15 pm 12:15 Sunny 54 12 19 -7 26 26 NNW 21 33 30.15 1021 10 16 0.00 0.00
12:35 pm 12:35 Sunny 54 12 19 -7 26 26 NNW 18 30 30.15 1021 10 16 0.00 0.00
12:55 pm 12:55 Sunny 55 13 19 -7 24 24 NNW 14 22 30.15 1021 10 16 0.00 0.00
1:15 pm 13:15 Sunny 55 13 19 -7 24 24 NNW 18 30 30.09 1019 10 16 0.00 0.00
1:35 pm 13:35 Sunny 55 13 19 -7 24 24 NNW 18 30 30.09 1019 10 16 0.00 0.00
1:55 pm 13:55 Sunny 57 14 19 -7 23 23 NNW 16 26 30.09 1019 10 16 0.00 0.00
2:15 pm 14:15 Sunny 57 14 18 -8 21 21 NNW 17 28 30.09 1019 10 16 0.00 0.00
2:35 pm 14:35 Sunny 57 14 18 -8 21 21 NNW 17 28 30.09 1019 10 16 0.00 0.00
2:55 pm 14:55 Sunny 57 14 19 -7 23 23 NNW 15 24 30.09 1019 10 16 0.00 0.00
3:15 pm 15:15 Sunny 57 14 19 -7 23 23 NNW 16 26 30.09 1019 10 16 0.00 0.00
3:35 pm 15:35 Sunny 57 14 19 -7 23 23 NNW 16 26 30.09 1019 10 16 0.00 0.00
3:55 pm 15:55 Sunny 59 15 19 -7 21 21 N 14 22 30.09 1019 10 16 0.00 0.00
4:15 pm 16:15 Sunny 57 14 19 -7 23 23 NNW 12 19 30.09 1019 10 16 0.00 0.00
4:35 pm 16:35 Sunny 57 14 19 -7 23 23 N 10 17 30.09 1019 10 16 0.00 0.00
4:55 pm 16:55 Sunny 57 14 19 -7 23 23 NNW 9 15 30.09 1019 10 16 0.00 0.00
5:15 pm 17:15 Sunny 57 14 19 -7 23 23 N 9 15 30.09 1019 10 16 0.00 0.00
5:35 pm 17:35 Sunny 55 13 19 -7 24 24 NNW 8 13 30.09 1019 10 16 0.00 0.00
5:55 pm 17:55 Sunny 54 12 19 -7 26 26 N 5 7 30.12 1020 10 16 0.00 0.00
6:15 pm 18:15 Sunny 52 11 18 -8 26 26 Calm 30.12 1020 10 16 0.00 0.00
6:35 pm 18:35 Clear 52 11 18 -8 26 26 Calm 30.12 1020 10 16 0.00 0.00
6:55 pm 18:55 Clear 48 9 19 -7 32 32 Calm 30.15 1021 10 16 0.00 0.00
7:15 pm 19:15 Clear 48 9 19 -7 32 32 Calm 30.15 1021 10 16 0.00 0.00
7:35 pm 19:35 Clear 46 8 19 -7 34 34 NNE 3 6 30.15 1021 10 16 0.00 0.00
7:55 pm 19:55 Clear 43 6 19 -7 39 39 S 5 7 30.15 1021 10 16 0.00 0.00
8:15 pm 20:15 Clear 45 7 19 -7 37 37 SSW 6 9 30.15 1021 10 16 0.00 0.00
8:35 pm 20:35 Clear 45 7 19 -7 37 37 SSW 6 9 30.12 1020 10 16 0.00 0.00
8:55 pm 20:55 Clear 39 4 21 -6 48 48 SSW 7 11 30.15 1021 10 16 0.00 0.00
9:15 pm 21:15 Clear 39 4 19 -7 45 45 SSW 6 9 30.15 1021 10 16 0.00 0.00
9:35 pm 21:35 Clear 39 4 19 -7 45 45 SW 6 9 30.15 1021 10 16 0.00 0.00
9:55 pm 21:55 Clear 37 3 19 -7 48 48 SW 6 9 30.15 1021 10 16 0.00 0.00
10:15 pm 22:15 Clear 37 3 21 -6 52 52 SW 7 11 30.15 1021 10 16 0.00 0.00
10:35 pm 22:35 Clear 36 2 19 -7 52 52 SW 8 13 30.18 1022 10 16 0.00 0.00
10:55 pm 22:55 Clear 36 2 21 -6 56 56 SSW 8 13 30.18 1022 10 16 0.00 0.00
11:15 pm 23:15 Clear 36 2 19 -7 52 52 S 9 15 30.18 1022 10 16 0.00 0.00
11:35 pm 23:35 Clear 36 2 19 -7 52 52 S 7 11 30.18 1022 10 16 0.00 0.00
11:55 pm 23:55 Clear 36 2 19 -7 52 52 SE 7 11 30.12 1020 10 16 0.00 0.00

Powered by AerisWeather